Year,Month,Day,Hour,Minute,Value (Times are PST for temperature in C)
2010,07,07,00,00,14.40
2010,07,07,00,01,14.40
2010,07,07,00,02,14.30
2010,07,07,00,03,14.30
2010,07,07,00,04,14.30
2010,07,07,00,05,14.30
2010,07,07,00,06,14.20
2010,07,07,00,07,14.20
2010,07,07,00,08,14.20
2010,07,07,00,09,14.20
2010,07,07,00,10,14.10
2010,07,07,00,11,14.10
2010,07,07,00,12,14.10
2010,07,07,00,13,14.00
2010,07,07,00,14,14.00
2010,07,07,00,15,14.00
2010,07,07,00,16,13.90
2010,07,07,00,17,13.90
2010,07,07,00,18,13.90
2010,07,07,00,19,13.90
2010,07,07,00,20,13.90
2010,07,07,00,21,13.90
2010,07,07,00,22,13.80
2010,07,07,00,23,13.80
2010,07,07,00,24,13.80
2010,07,07,00,25,13.80
2010,07,07,00,26,13.80
2010,07,07,00,27,13.80
2010,07,07,00,28,13.80
2010,07,07,00,29,13.70
2010,07,07,00,30,13.70
2010,07,07,00,31,13.70
2010,07,07,00,32,13.70
2010,07,07,00,33,13.70
2010,07,07,00,34,13.70
2010,07,07,00,35,13.70
2010,07,07,00,36,13.70
2010,07,07,00,37,13.70
2010,07,07,00,38,13.70
2010,07,07,00,39,13.70
2010,07,07,00,40,13.70
2010,07,07,00,41,13.70
2010,07,07,00,42,13.70
2010,07,07,00,43,13.70
2010,07,07,00,44,13.70
2010,07,07,00,45,13.70
2010,07,07,00,46,13.70
2010,07,07,00,47,13.70
2010,07,07,00,48,13.70
2010,07,07,00,49,13.70
2010,07,07,00,50,13.70
2010,07,07,00,51,13.70
2010,07,07,00,52,13.60
2010,07,07,00,53,13.60
2010,07,07,00,54,13.60
2010,07,07,00,55,13.60
2010,07,07,00,56,13.60
2010,07,07,00,57,13.60
2010,07,07,00,58,13.60
2010,07,07,00,59,13.60
2010,07,07,01,00,13.60
2010,07,07,01,01,13.60
2010,07,07,01,02,13.50
2010,07,07,01,03,13.50
2010,07,07,01,04,13.50
2010,07,07,01,05,13.50
2010,07,07,01,06,13.50
2010,07,07,01,07,13.40
2010,07,07,01,08,13.40
2010,07,07,01,09,13.40
2010,07,07,01,10,13.40
2010,07,07,01,11,13.40
2010,07,07,01,12,13.40
2010,07,07,01,13,13.40
2010,07,07,01,14,13.40
2010,07,07,01,15,13.40
2010,07,07,01,16,13.40
2010,07,07,01,17,13.40
2010,07,07,01,18,13.40
2010,07,07,01,19,13.40
2010,07,07,01,20,13.40
2010,07,07,01,21,13.40
2010,07,07,01,22,13.40
2010,07,07,01,23,13.40
2010,07,07,01,24,13.40
2010,07,07,01,25,13.40
2010,07,07,01,26,13.40
2010,07,07,01,27,13.40
2010,07,07,01,28,13.30
2010,07,07,01,29,13.30
2010,07,07,01,30,13.30
2010,07,07,01,31,13.30
2010,07,07,01,32,13.30
2010,07,07,01,33,13.30
2010,07,07,01,34,13.30
2010,07,07,01,35,13.30
2010,07,07,01,36,13.30
2010,07,07,01,37,13.30
2010,07,07,01,38,13.40
2010,07,07,01,39,13.40
2010,07,07,01,40,13.40
2010,07,07,01,41,13.40
2010,07,07,01,42,13.40
2010,07,07,01,43,13.40
2010,07,07,01,44,13.40
2010,07,07,01,45,13.40
2010,07,07,01,46,13.40
2010,07,07,01,47,13.40
2010,07,07,01,48,13.40
2010,07,07,01,49,13.40
2010,07,07,01,50,13.30
2010,07,07,01,51,13.30
2010,07,07,01,52,13.30
2010,07,07,01,53,13.30
2010,07,07,01,54,13.30
2010,07,07,01,55,13.30
2010,07,07,01,56,13.40
2010,07,07,01,57,13.30
2010,07,07,01,58,13.40
2010,07,07,01,59,13.40
2010,07,07,02,00,13.40
2010,07,07,02,01,13.40
2010,07,07,02,02,13.40
2010,07,07,02,03,13.40
2010,07,07,02,04,13.40
2010,07,07,02,05,13.40
2010,07,07,02,06,13.40
2010,07,07,02,07,13.40
2010,07,07,02,08,13.30
2010,07,07,02,09,13.30
2010,07,07,02,10,13.30
2010,07,07,02,11,13.30
2010,07,07,02,12,13.30
2010,07,07,02,13,13.40
2010,07,07,02,14,13.40
2010,07,07,02,15,13.40
2010,07,07,02,16,13.40
2010,07,07,02,17,13.40
2010,07,07,02,18,13.40
2010,07,07,02,19,13.50
2010,07,07,02,20,13.50
2010,07,07,02,21,13.60
2010,07,07,02,22,13.60
2010,07,07,02,23,13.70
2010,07,07,02,24,13.90
2010,07,07,02,25,14.10
2010,07,07,02,26,14.40
2010,07,07,02,27,14.70
2010,07,07,02,28,15.00
2010,07,07,02,29,15.30
2010,07,07,02,30,15.60
2010,07,07,02,31,15.90
2010,07,07,02,32,16.20
2010,07,07,02,33,16.40
2010,07,07,02,34,16.70
2010,07,07,02,35,16.90
2010,07,07,02,36,17.10
2010,07,07,02,37,17.40
2010,07,07,02,38,17.60
2010,07,07,02,39,17.80
2010,07,07,02,40,17.90
2010,07,07,02,41,18.10
2010,07,07,02,42,18.20
2010,07,07,02,43,18.30
2010,07,07,02,44,18.30
2010,07,07,02,45,18.40
2010,07,07,02,46,18.40
2010,07,07,02,47,18.50
2010,07,07,02,48,18.60
2010,07,07,02,49,18.60
2010,07,07,02,50,18.60
2010,07,07,02,51,18.50
2010,07,07,02,52,18.40
2010,07,07,02,53,18.30
2010,07,07,02,54,18.20
2010,07,07,02,55,18.10
2010,07,07,02,56,18.00
2010,07,07,02,57,17.90
2010,07,07,02,58,17.80
2010,07,07,02,59,17.70
2010,07,07,03,00,17.60
2010,07,07,03,01,17.50
2010,07,07,03,02,17.30
2010,07,07,03,03,17.20
2010,07,07,03,04,17.10
2010,07,07,03,05,17.00
2010,07,07,03,06,16.90
2010,07,07,03,07,16.80
2010,07,07,03,08,16.70
2010,07,07,03,09,16.50
2010,07,07,03,10,16.40
2010,07,07,03,11,16.30
2010,07,07,03,12,16.30
2010,07,07,03,13,16.20
2010,07,07,03,14,16.10
2010,07,07,03,15,16.00
2010,07,07,03,16,15.90
2010,07,07,03,17,15.80
2010,07,07,03,18,15.80
2010,07,07,03,19,15.70
2010,07,07,03,20,15.60
2010,07,07,03,21,15.60
2010,07,07,03,22,15.50
2010,07,07,03,23,15.40
2010,07,07,03,24,15.40
2010,07,07,03,25,15.40
2010,07,07,03,26,15.30
2010,07,07,03,27,15.30
2010,07,07,03,28,15.20
2010,07,07,03,29,15.20
2010,07,07,03,30,15.20
2010,07,07,03,31,15.10
2010,07,07,03,32,15.10
2010,07,07,03,33,15.10
2010,07,07,03,34,15.10
2010,07,07,03,35,15.10
2010,07,07,03,36,15.10
2010,07,07,03,37,15.20
2010,07,07,03,38,15.20
2010,07,07,03,39,15.30
2010,07,07,03,40,15.30
2010,07,07,03,41,15.40
2010,07,07,03,42,15.50
2010,07,07,03,43,15.60
2010,07,07,03,44,15.60
2010,07,07,03,45,15.70
2010,07,07,03,46,15.70
2010,07,07,03,47,15.70
2010,07,07,03,48,15.70
2010,07,07,03,49,15.70
2010,07,07,03,50,15.80
2010,07,07,03,51,15.80
2010,07,07,03,52,15.80
2010,07,07,03,53,15.80
2010,07,07,03,54,15.90
2010,07,07,03,55,15.90
2010,07,07,03,56,16.00
2010,07,07,03,57,16.10
2010,07,07,03,58,16.20
2010,07,07,03,59,16.30
2010,07,07,04,00,16.40
2010,07,07,04,01,16.60
2010,07,07,04,02,16.70
2010,07,07,04,03,16.70
2010,07,07,04,04,16.80
2010,07,07,04,05,16.90
2010,07,07,04,06,17.00
2010,07,07,04,07,17.10
2010,07,07,04,08,17.10
2010,07,07,04,09,17.00
2010,07,07,04,10,17.00
2010,07,07,04,11,16.90
2010,07,07,04,12,16.90
2010,07,07,04,13,16.90
2010,07,07,04,14,16.80
2010,07,07,04,15,16.90
2010,07,07,04,16,16.90
2010,07,07,04,17,16.90
2010,07,07,04,18,16.90
2010,07,07,04,19,16.90
2010,07,07,04,20,16.80
2010,07,07,04,21,16.80
2010,07,07,04,22,16.70
2010,07,07,04,23,16.70
2010,07,07,04,24,16.60
2010,07,07,04,25,16.50
2010,07,07,04,26,16.50
2010,07,07,04,27,16.40
2010,07,07,04,28,16.40
2010,07,07,04,29,16.40
2010,07,07,04,30,16.30
2010,07,07,04,31,16.20
2010,07,07,04,32,16.20
2010,07,07,04,33,16.10
2010,07,07,04,34,16.10
2010,07,07,04,35,16.10
2010,07,07,04,36,16.00
2010,07,07,04,37,16.00
2010,07,07,04,38,16.00
2010,07,07,04,39,16.00
2010,07,07,04,40,15.90
2010,07,07,04,41,15.90
2010,07,07,04,42,15.90
2010,07,07,04,43,15.90
2010,07,07,04,44,15.90
2010,07,07,04,45,15.80
2010,07,07,04,46,15.80
2010,07,07,04,47,15.80
2010,07,07,04,48,15.70
2010,07,07,04,49,15.70
2010,07,07,04,50,15.60
2010,07,07,04,51,15.60
2010,07,07,04,52,15.50
2010,07,07,04,53,15.50
2010,07,07,04,54,15.40
2010,07,07,04,55,15.40
2010,07,07,04,56,15.40
2010,07,07,04,57,15.30
2010,07,07,04,58,15.30
2010,07,07,04,59,15.30
2010,07,07,05,00,15.20
2010,07,07,05,01,15.20
2010,07,07,05,02,15.20
2010,07,07,05,03,15.20
2010,07,07,05,04,15.20
2010,07,07,05,05,15.20
2010,07,07,05,06,15.20
2010,07,07,05,07,15.10
2010,07,07,05,08,15.10
2010,07,07,05,09,15.10
2010,07,07,05,10,15.10
2010,07,07,05,11,15.10
2010,07,07,05,12,15.10
2010,07,07,05,13,15.10
2010,07,07,05,14,15.10
2010,07,07,05,15,15.10
2010,07,07,05,16,15.10
2010,07,07,05,17,15.10
2010,07,07,05,18,15.10
2010,07,07,05,19,15.10
2010,07,07,05,20,15.10
2010,07,07,05,21,15.10
2010,07,07,05,22,15.10
2010,07,07,05,23,15.10
2010,07,07,05,24,15.10
2010,07,07,05,25,15.10
2010,07,07,05,26,15.10
2010,07,07,05,27,15.10
2010,07,07,05,28,15.10
2010,07,07,05,29,15.20
2010,07,07,05,30,15.20
2010,07,07,05,31,15.20
2010,07,07,05,32,15.30
2010,07,07,05,33,15.30
2010,07,07,05,34,15.30
2010,07,07,05,35,15.30
2010,07,07,05,36,15.30
2010,07,07,05,37,15.30
2010,07,07,05,38,15.30
2010,07,07,05,39,15.20
2010,07,07,05,40,15.20
2010,07,07,05,41,15.20
2010,07,07,05,42,15.20
2010,07,07,05,43,15.20
2010,07,07,05,44,15.20
2010,07,07,05,45,15.10
2010,07,07,05,46,15.10
2010,07,07,05,47,15.10
2010,07,07,05,48,15.10
2010,07,07,05,49,15.10
2010,07,07,05,50,15.00
2010,07,07,05,51,15.00
2010,07,07,05,52,15.00
2010,07,07,05,53,15.00
2010,07,07,05,54,14.90
2010,07,07,05,55,14.90
2010,07,07,05,56,14.90
2010,07,07,05,57,14.90
2010,07,07,05,58,14.90
2010,07,07,05,59,14.80
2010,07,07,06,00,14.80
2010,07,07,06,01,14.80
2010,07,07,06,02,14.80
2010,07,07,06,03,14.80
2010,07,07,06,04,14.80
2010,07,07,06,05,14.80
2010,07,07,06,06,14.90
2010,07,07,06,07,14.90
2010,07,07,06,08,15.00
2010,07,07,06,09,15.10
2010,07,07,06,10,15.20
2010,07,07,06,11,15.20
2010,07,07,06,12,15.20
2010,07,07,06,13,15.30
2010,07,07,06,14,15.40
2010,07,07,06,15,15.60
2010,07,07,06,16,15.70
2010,07,07,06,17,15.80
2010,07,07,06,18,15.90
2010,07,07,06,19,16.00
2010,07,07,06,20,16.10
2010,07,07,06,21,16.20
2010,07,07,06,22,16.30
2010,07,07,06,23,16.50
2010,07,07,06,24,16.60
2010,07,07,06,25,16.70
2010,07,07,06,26,16.80
2010,07,07,06,27,16.90
2010,07,07,06,28,17.00
2010,07,07,06,29,17.10
2010,07,07,06,30,17.20
2010,07,07,06,31,17.30
2010,07,07,06,32,17.40
2010,07,07,06,33,17.40
2010,07,07,06,34,17.50
2010,07,07,06,35,17.50
2010,07,07,06,36,17.60
2010,07,07,06,37,17.70
2010,07,07,06,38,17.80
2010,07,07,06,39,17.80
2010,07,07,06,40,17.80
2010,07,07,06,41,17.90
2010,07,07,06,42,17.90
2010,07,07,06,43,17.90
2010,07,07,06,44,18.00
2010,07,07,06,45,18.00
2010,07,07,06,46,18.10
2010,07,07,06,47,18.10
2010,07,07,06,48,18.20
2010,07,07,06,49,18.20
2010,07,07,06,50,18.30
2010,07,07,06,51,18.30
2010,07,07,06,52,18.30
2010,07,07,06,53,18.30
2010,07,07,06,54,18.40
2010,07,07,06,55,18.40
2010,07,07,06,56,18.40
2010,07,07,06,57,18.50
2010,07,07,06,58,18.50
2010,07,07,06,59,18.60
2010,07,07,07,00,18.60
2010,07,07,07,01,18.60
2010,07,07,07,02,18.60
2010,07,07,07,03,18.70
2010,07,07,07,04,18.70
2010,07,07,07,05,18.70
2010,07,07,07,06,18.70
2010,07,07,07,07,18.70
2010,07,07,07,08,18.70
2010,07,07,07,09,18.70
2010,07,07,07,10,18.70
2010,07,07,07,11,18.80
2010,07,07,07,12,18.80
2010,07,07,07,13,18.80
2010,07,07,07,14,18.80
2010,07,07,07,15,18.80
2010,07,07,07,16,18.90
2010,07,07,07,17,18.90
2010,07,07,07,18,18.90
2010,07,07,07,19,19.00
2010,07,07,07,20,19.00
2010,07,07,07,21,19.10
2010,07,07,07,22,19.10
2010,07,07,07,23,19.20
2010,07,07,07,24,19.20
2010,07,07,07,25,19.20
2010,07,07,07,26,19.20
2010,07,07,07,27,19.30
2010,07,07,07,28,19.30
2010,07,07,07,29,19.30
2010,07,07,07,30,19.40
2010,07,07,07,31,19.40
2010,07,07,07,32,19.40
2010,07,07,07,33,19.40
2010,07,07,07,34,19.40
2010,07,07,07,35,19.40
2010,07,07,07,36,19.40
2010,07,07,07,37,19.40
2010,07,07,07,38,19.50
2010,07,07,07,39,19.50
2010,07,07,07,40,19.50
2010,07,07,07,41,19.50
2010,07,07,07,42,19.60
2010,07,07,07,43,19.60
2010,07,07,07,44,19.60
2010,07,07,07,45,19.70
2010,07,07,07,46,19.70
2010,07,07,07,47,19.70
2010,07,07,07,48,19.70
2010,07,07,07,49,19.80
2010,07,07,07,50,19.80
2010,07,07,07,51,19.80
2010,07,07,07,52,19.90
2010,07,07,07,53,19.90
2010,07,07,07,54,19.90
2010,07,07,07,55,20.00
2010,07,07,07,56,20.00
2010,07,07,07,57,20.10
2010,07,07,07,58,20.10
2010,07,07,07,59,20.10
2010,07,07,08,00,20.20
2010,07,07,08,01,20.20
2010,07,07,08,02,20.20
2010,07,07,08,03,20.20
2010,07,07,08,04,20.20
2010,07,07,08,05,20.30
2010,07,07,08,06,20.30
2010,07,07,08,07,20.30
2010,07,07,08,08,20.40
2010,07,07,08,09,20.40
2010,07,07,08,10,20.50
2010,07,07,08,11,20.50
2010,07,07,08,12,20.60
2010,07,07,08,13,20.60
2010,07,07,08,14,20.60
2010,07,07,08,15,20.70
2010,07,07,08,16,20.70
2010,07,07,08,17,20.70
2010,07,07,08,18,20.70
2010,07,07,08,19,20.80
2010,07,07,08,20,20.80
2010,07,07,08,21,20.80
2010,07,07,08,22,20.80
2010,07,07,08,23,20.90
2010,07,07,08,24,20.90
2010,07,07,08,25,21.00
2010,07,07,08,26,21.00
2010,07,07,08,27,21.00
2010,07,07,08,28,21.00
2010,07,07,08,29,21.00
2010,07,07,08,30,21.00
2010,07,07,08,31,21.10
2010,07,07,08,32,21.10
2010,07,07,08,33,21.10
2010,07,07,08,34,21.10
2010,07,07,08,35,21.10
2010,07,07,08,36,21.10
2010,07,07,08,37,21.10
2010,07,07,08,38,21.10
2010,07,07,08,39,21.10
2010,07,07,08,40,21.10
2010,07,07,08,41,21.10
2010,07,07,08,42,21.10
2010,07,07,08,43,21.10
2010,07,07,08,44,21.10
2010,07,07,08,45,21.20
2010,07,07,08,46,21.20
2010,07,07,08,47,21.20
2010,07,07,08,48,21.30
2010,07,07,08,49,21.30
2010,07,07,08,50,21.30
2010,07,07,08,51,21.40
2010,07,07,08,52,21.50
2010,07,07,08,53,21.60
2010,07,07,08,54,21.60
2010,07,07,08,55,21.70
2010,07,07,08,56,21.70
2010,07,07,08,57,21.80
2010,07,07,08,58,21.80
2010,07,07,08,59,21.90
2010,07,07,09,00,21.90
2010,07,07,09,01,22.00
2010,07,07,09,02,22.00
2010,07,07,09,03,22.10
2010,07,07,09,04,22.10
2010,07,07,09,05,22.20
2010,07,07,09,06,22.20
2010,07,07,09,07,22.30
2010,07,07,09,08,22.30
2010,07,07,09,09,22.40
2010,07,07,09,10,22.50
2010,07,07,09,11,22.50
2010,07,07,09,12,22.60
2010,07,07,09,13,22.70
2010,07,07,09,14,22.80
2010,07,07,09,15,22.90
2010,07,07,09,16,23.00
2010,07,07,09,17,23.00
2010,07,07,09,18,23.10
2010,07,07,09,19,23.20
2010,07,07,09,20,23.30
2010,07,07,09,21,23.30
2010,07,07,09,22,23.40
2010,07,07,09,23,23.40
2010,07,07,09,24,23.50
2010,07,07,09,25,23.50
2010,07,07,09,26,23.60
2010,07,07,09,27,23.60
2010,07,07,09,28,23.70
2010,07,07,09,29,23.80
2010,07,07,09,30,23.80
2010,07,07,09,31,23.90
2010,07,07,09,32,23.90
2010,07,07,09,33,24.00
2010,07,07,09,34,24.10
2010,07,07,09,35,24.10
2010,07,07,09,36,24.10
2010,07,07,09,37,24.10
2010,07,07,09,38,24.10
2010,07,07,09,39,24.10
2010,07,07,09,40,24.20
2010,07,07,09,41,24.20
2010,07,07,09,42,24.20
2010,07,07,09,43,24.30
2010,07,07,09,44,24.30
2010,07,07,09,45,24.30
2010,07,07,09,46,24.40
2010,07,07,09,47,24.40
2010,07,07,09,48,24.50
2010,07,07,09,49,24.50
2010,07,07,09,50,24.50
2010,07,07,09,51,24.50
2010,07,07,09,52,24.50
2010,07,07,09,53,24.50
2010,07,07,09,54,24.40
2010,07,07,09,55,24.30
2010,07,07,09,56,24.30
2010,07,07,09,57,24.20
2010,07,07,09,58,24.30
2010,07,07,09,59,24.30
2010,07,07,10,00,24.40
2010,07,07,10,01,24.50
2010,07,07,10,02,24.50
2010,07,07,10,03,24.60
2010,07,07,10,04,24.70
2010,07,07,10,05,24.70
2010,07,07,10,06,24.80
2010,07,07,10,07,24.80
2010,07,07,10,08,24.80
2010,07,07,10,09,24.80
2010,07,07,10,10,24.80
2010,07,07,10,11,24.80
2010,07,07,10,12,24.80
2010,07,07,10,13,24.90
2010,07,07,10,14,24.90
2010,07,07,10,15,24.90
2010,07,07,10,16,25.00
2010,07,07,10,17,25.00
2010,07,07,10,18,25.00
2010,07,07,10,19,25.10
2010,07,07,10,20,25.10
2010,07,07,10,21,25.00
2010,07,07,10,22,24.90
2010,07,07,10,23,24.90
2010,07,07,10,24,24.90
2010,07,07,10,25,24.80
2010,07,07,10,26,24.80
2010,07,07,10,27,24.80
2010,07,07,10,28,24.80
2010,07,07,10,29,24.80
2010,07,07,10,30,24.80
2010,07,07,10,31,24.90
2010,07,07,10,32,25.00
2010,07,07,10,33,25.10
2010,07,07,10,34,25.10
2010,07,07,10,35,25.20
2010,07,07,10,36,25.20
2010,07,07,10,37,25.20
2010,07,07,10,38,25.30
2010,07,07,10,39,25.30
2010,07,07,10,40,25.40
2010,07,07,10,41,25.40
2010,07,07,10,42,25.50
2010,07,07,10,43,25.60
2010,07,07,10,44,25.70
2010,07,07,10,45,25.70
2010,07,07,10,46,25.80
2010,07,07,10,47,25.80
2010,07,07,10,48,25.80
2010,07,07,10,49,25.70
2010,07,07,10,50,25.70
2010,07,07,10,51,25.80
2010,07,07,10,52,25.80
2010,07,07,10,53,25.90
2010,07,07,10,54,25.90
2010,07,07,10,55,25.90
2010,07,07,10,56,25.90
2010,07,07,10,57,25.90
2010,07,07,10,58,25.90
2010,07,07,10,59,26.00
2010,07,07,11,00,26.10
2010,07,07,11,01,26.10
2010,07,07,11,02,26.10
2010,07,07,11,03,26.20
2010,07,07,11,04,26.20
2010,07,07,11,05,26.30
2010,07,07,11,06,26.30
2010,07,07,11,07,26.40
2010,07,07,11,08,26.50
2010,07,07,11,09,26.60
2010,07,07,11,10,26.60
2010,07,07,11,11,26.60
2010,07,07,11,12,26.60
2010,07,07,11,13,26.70
2010,07,07,11,14,26.70
2010,07,07,11,15,26.70
2010,07,07,11,16,26.70
2010,07,07,11,17,26.70
2010,07,07,11,18,26.70
2010,07,07,11,19,26.80
2010,07,07,11,20,26.80
2010,07,07,11,21,26.80
2010,07,07,11,22,26.90
2010,07,07,11,23,26.90
2010,07,07,11,24,26.90
2010,07,07,11,25,26.90
2010,07,07,11,26,27.00
2010,07,07,11,27,27.10
2010,07,07,11,28,27.10
2010,07,07,11,29,27.20
2010,07,07,11,30,27.20
2010,07,07,11,31,27.30
2010,07,07,11,32,27.30
2010,07,07,11,33,27.40
2010,07,07,11,34,27.40
2010,07,07,11,35,27.50
2010,07,07,11,36,27.60
2010,07,07,11,37,27.70
2010,07,07,11,38,27.70
2010,07,07,11,39,27.80
2010,07,07,11,40,27.90
2010,07,07,11,41,27.90
2010,07,07,11,42,27.80
2010,07,07,11,43,27.70
2010,07,07,11,44,27.70
2010,07,07,11,45,27.70
2010,07,07,11,46,27.70
2010,07,07,11,47,27.70
2010,07,07,11,48,27.70
2010,07,07,11,49,27.80
2010,07,07,11,50,27.90
2010,07,07,11,51,27.90
2010,07,07,11,52,28.00
2010,07,07,11,53,28.00
2010,07,07,11,54,28.10
2010,07,07,11,55,28.10
2010,07,07,11,56,28.10
2010,07,07,11,57,28.20
2010,07,07,11,58,28.20
2010,07,07,11,59,28.20
2010,07,07,12,00,28.20
2010,07,07,12,01,28.20
2010,07,07,12,02,28.20
2010,07,07,12,03,28.10
2010,07,07,12,04,28.10
2010,07,07,12,05,28.00
2010,07,07,12,06,28.00
2010,07,07,12,07,28.00
2010,07,07,12,08,27.90
2010,07,07,12,09,27.90
2010,07,07,12,10,27.90
2010,07,07,12,11,27.90
2010,07,07,12,12,27.90
2010,07,07,12,13,28.00
2010,07,07,12,14,28.00
2010,07,07,12,15,28.10
2010,07,07,12,16,28.00
2010,07,07,12,17,27.90
2010,07,07,12,18,27.90
2010,07,07,12,19,27.70
2010,07,07,12,20,27.60
2010,07,07,12,21,27.50
2010,07,07,12,22,27.40
2010,07,07,12,23,27.50
2010,07,07,12,24,27.50
2010,07,07,12,25,27.50
2010,07,07,12,26,27.50
2010,07,07,12,27,27.50
2010,07,07,12,28,27.60
2010,07,07,12,29,27.80
2010,07,07,12,30,27.90
2010,07,07,12,31,28.00
2010,07,07,12,32,28.10
2010,07,07,12,33,28.20
2010,07,07,12,34,28.30
2010,07,07,12,35,28.30
2010,07,07,12,36,28.30
2010,07,07,12,37,28.40
2010,07,07,12,38,28.40
2010,07,07,12,39,28.40
2010,07,07,12,40,28.30
2010,07,07,12,41,28.20
2010,07,07,12,42,28.20
2010,07,07,12,43,28.20
2010,07,07,12,44,28.20
2010,07,07,12,45,28.20
2010,07,07,12,46,28.20
2010,07,07,12,47,28.10
2010,07,07,12,48,28.10
2010,07,07,12,49,28.00
2010,07,07,12,50,28.00
2010,07,07,12,51,28.00
2010,07,07,12,52,28.00
2010,07,07,12,53,28.10
2010,07,07,12,54,28.10
2010,07,07,12,55,28.10
2010,07,07,12,56,28.10
2010,07,07,12,57,28.10
2010,07,07,12,58,28.20
2010,07,07,12,59,28.20
2010,07,07,13,00,28.20
2010,07,07,13,01,28.20
2010,07,07,13,02,28.20
2010,07,07,13,03,28.20
2010,07,07,13,04,28.20
2010,07,07,13,05,28.20
2010,07,07,13,06,28.10
2010,07,07,13,07,28.10
2010,07,07,13,08,28.00
2010,07,07,13,09,28.00
2010,07,07,13,10,28.10
2010,07,07,13,11,28.10
2010,07,07,13,12,28.20
2010,07,07,13,13,28.30
2010,07,07,13,14,28.30
2010,07,07,13,15,28.40
2010,07,07,13,16,28.50
2010,07,07,13,17,28.70
2010,07,07,13,18,28.80
2010,07,07,13,19,28.90
2010,07,07,13,20,29.00
2010,07,07,13,21,29.10
2010,07,07,13,22,29.20
2010,07,07,13,23,29.20
2010,07,07,13,24,29.30
2010,07,07,13,25,29.30
2010,07,07,13,26,29.30
2010,07,07,13,27,29.40
2010,07,07,13,28,29.40
2010,07,07,13,29,29.50
2010,07,07,13,30,29.60
2010,07,07,13,31,29.60
2010,07,07,13,32,29.60
2010,07,07,13,33,29.60
2010,07,07,13,34,29.50
2010,07,07,13,35,29.50
2010,07,07,13,36,29.50
2010,07,07,13,37,29.50
2010,07,07,13,38,29.60
2010,07,07,13,39,29.60
2010,07,07,13,40,29.60
2010,07,07,13,41,29.70
2010,07,07,13,42,29.70
2010,07,07,13,43,29.80
2010,07,07,13,44,29.80
2010,07,07,13,45,29.80
2010,07,07,13,46,29.80
2010,07,07,13,47,29.80
2010,07,07,13,48,29.90
2010,07,07,13,49,30.00
2010,07,07,13,50,30.10
2010,07,07,13,51,30.10
2010,07,07,13,52,30.20
2010,07,07,13,53,30.10
2010,07,07,13,54,30.00
2010,07,07,13,55,30.00
2010,07,07,13,56,29.90
2010,07,07,13,57,29.90
2010,07,07,13,58,29.80
2010,07,07,13,59,29.80
2010,07,07,14,00,29.80
2010,07,07,14,01,29.70
2010,07,07,14,02,29.60
2010,07,07,14,03,29.60
2010,07,07,14,04,29.60
2010,07,07,14,05,29.50
2010,07,07,14,06,29.50
2010,07,07,14,07,29.50
2010,07,07,14,08,29.50
2010,07,07,14,09,29.50
2010,07,07,14,10,29.50
2010,07,07,14,11,29.50
2010,07,07,14,12,29.60
2010,07,07,14,13,29.60
2010,07,07,14,14,29.70
2010,07,07,14,15,29.70
2010,07,07,14,16,29.70
2010,07,07,14,17,29.60
2010,07,07,14,18,29.60
2010,07,07,14,19,29.60
2010,07,07,14,20,29.60
2010,07,07,14,21,29.70
2010,07,07,14,22,29.70
2010,07,07,14,23,29.80
2010,07,07,14,24,29.80
2010,07,07,14,25,29.80
2010,07,07,14,26,29.90
2010,07,07,14,27,30.00
2010,07,07,14,28,30.10
2010,07,07,14,29,30.20
2010,07,07,14,30,30.20
2010,07,07,14,31,30.30
2010,07,07,14,32,30.30
2010,07,07,14,33,30.30
2010,07,07,14,34,30.30
2010,07,07,14,35,30.30
2010,07,07,14,36,30.30
2010,07,07,14,37,30.30
2010,07,07,14,38,30.30
2010,07,07,14,39,30.30
2010,07,07,14,40,30.40
2010,07,07,14,41,30.40
2010,07,07,14,42,30.40
2010,07,07,14,43,30.40
2010,07,07,14,44,30.40
2010,07,07,14,45,30.40
2010,07,07,14,46,30.40
2010,07,07,14,47,30.40
2010,07,07,14,48,30.40
2010,07,07,14,49,30.40
2010,07,07,14,50,30.40
2010,07,07,14,51,30.40
2010,07,07,14,52,30.40
2010,07,07,14,53,30.40
2010,07,07,14,54,30.30
2010,07,07,14,55,30.30
2010,07,07,14,56,30.30
2010,07,07,14,57,30.30
2010,07,07,14,58,30.30
2010,07,07,14,59,30.20
2010,07,07,15,00,30.20
2010,07,07,15,01,30.20
2010,07,07,15,02,30.30
2010,07,07,15,03,30.30
2010,07,07,15,04,30.20
2010,07,07,15,05,30.20
2010,07,07,15,06,30.20
2010,07,07,15,07,30.20
2010,07,07,15,08,30.30
2010,07,07,15,09,30.30
2010,07,07,15,10,30.30
2010,07,07,15,11,30.30
2010,07,07,15,12,30.30
2010,07,07,15,13,30.40
2010,07,07,15,14,30.30
2010,07,07,15,15,30.40
2010,07,07,15,16,30.50
2010,07,07,15,17,30.50
2010,07,07,15,18,30.60
2010,07,07,15,19,30.70
2010,07,07,15,20,30.80
2010,07,07,15,21,30.80
2010,07,07,15,22,30.80
2010,07,07,15,23,30.80
2010,07,07,15,24,30.80
2010,07,07,15,25,30.90
2010,07,07,15,26,30.90
2010,07,07,15,27,31.00
2010,07,07,15,28,31.10
2010,07,07,15,29,31.10
2010,07,07,15,30,31.10
2010,07,07,15,31,31.10
2010,07,07,15,32,31.10
2010,07,07,15,33,31.10
2010,07,07,15,34,31.10
2010,07,07,15,35,31.00
2010,07,07,15,36,31.00
2010,07,07,15,37,31.00
2010,07,07,15,38,31.00
2010,07,07,15,39,31.00
2010,07,07,15,40,31.00
2010,07,07,15,41,31.00
2010,07,07,15,42,31.00
2010,07,07,15,43,31.10
2010,07,07,15,44,31.00
2010,07,07,15,45,31.00
2010,07,07,15,46,31.00
2010,07,07,15,47,30.90
2010,07,07,15,48,30.90
2010,07,07,15,49,30.90
2010,07,07,15,50,30.90
2010,07,07,15,51,30.90
2010,07,07,15,52,30.90
2010,07,07,15,53,30.90
2010,07,07,15,54,30.90
2010,07,07,15,55,31.00
2010,07,07,15,56,30.90
2010,07,07,15,57,30.90
2010,07,07,15,58,30.90
2010,07,07,15,59,30.90
2010,07,07,16,00,30.90
2010,07,07,16,01,30.90
2010,07,07,16,02,30.90
2010,07,07,16,03,30.90
2010,07,07,16,04,30.90
2010,07,07,16,05,30.90
2010,07,07,16,06,31.00
2010,07,07,16,07,31.00
2010,07,07,16,08,31.00
2010,07,07,16,09,31.00
2010,07,07,16,10,30.90
2010,07,07,16,11,30.90
2010,07,07,16,12,30.90
2010,07,07,16,13,31.00
2010,07,07,16,14,31.00
2010,07,07,16,15,31.10
2010,07,07,16,16,31.20
2010,07,07,16,17,31.20
2010,07,07,16,18,31.20
2010,07,07,16,19,31.20
2010,07,07,16,20,31.20
2010,07,07,16,21,31.20
2010,07,07,16,22,31.30
2010,07,07,16,23,31.30
2010,07,07,16,24,31.30
2010,07,07,16,25,31.40
2010,07,07,16,26,31.50
2010,07,07,16,27,31.60
2010,07,07,16,28,31.60
2010,07,07,16,29,31.60
2010,07,07,16,30,31.60
2010,07,07,16,31,31.40
2010,07,07,16,32,31.30
2010,07,07,16,33,31.00
2010,07,07,16,34,30.90
2010,07,07,16,35,30.80
2010,07,07,16,36,30.70
2010,07,07,16,37,30.70
2010,07,07,16,38,30.70
2010,07,07,16,39,30.60
2010,07,07,16,40,30.60
2010,07,07,16,41,30.60
2010,07,07,16,42,30.60
2010,07,07,16,43,30.50
2010,07,07,16,44,30.50
2010,07,07,16,45,30.50
2010,07,07,16,46,30.50
2010,07,07,16,47,30.60
2010,07,07,16,48,30.60
2010,07,07,16,49,30.70
2010,07,07,16,50,30.70
2010,07,07,16,51,30.80
2010,07,07,16,52,30.80
2010,07,07,16,53,30.90
2010,07,07,16,54,31.00
2010,07,07,16,55,31.00
2010,07,07,16,56,31.10
2010,07,07,16,57,31.20
2010,07,07,16,58,31.20
2010,07,07,16,59,31.30
2010,07,07,17,00,31.30
2010,07,07,17,01,31.30
2010,07,07,17,02,31.30
2010,07,07,17,03,31.30
2010,07,07,17,04,31.40
2010,07,07,17,05,31.40
2010,07,07,17,06,31.40
2010,07,07,17,07,31.50
2010,07,07,17,08,31.50
2010,07,07,17,09,31.60
2010,07,07,17,10,31.70
2010,07,07,17,11,31.70
2010,07,07,17,12,31.80
2010,07,07,17,13,31.80
2010,07,07,17,14,31.90
2010,07,07,17,15,31.90
2010,07,07,17,16,31.90
2010,07,07,17,17,31.90
2010,07,07,17,18,31.80
2010,07,07,17,19,31.80